Tracking 32139 objects as of 17-Nov-2025
HD Live streaming from Space Station
objects crossing your sky now

STARLINK-34973

Track STARLINK-34973 now!
10-day predictions
STARLINK-34973 is classified as:


NORAD ID: 65250
Int'l Code: 2025-179R
Perigee: 556.0 km
Apogee: 557.1 km
Inclination: 97.6 °
Period: 95.6 minutes
Semi major axis: 6927 km
RCS: Unknown
Launch date: August 18, 2025
Source: United States (US)
Launch site: AIR FORCE WESTERN TEST RANGE (AFWTR)
Your satellite tracking list
Your tracking list is empty




NASA's NSSDC Master Catalog

Two Line Element Set (TLE):
1 65250U 25179R   25320.78603811  .00011502  00000-0  79944-3 0  9993
2 65250  97.6066   1.7343 0000801  64.8241 295.3069 15.05679545 14822
Source of the keplerian elements: AFSPC